Regional Weather Roundup
Issued by NWS

Home | Current Version | Previous Version | Graphics & Text | Print | Product List | Glossary On
Versions: 1 2 3 4 5 6 7 8 9 10 11 12 13 14 15 16 17 18 19 20 21 22 23 24 25 26 27 28 29 30 31 32 33 34 35 36 37 38 39 40 41 42 43 44 45 46 47 48 49
000
ASUS45 KBOU 020807
RWRCO

WEATHER ROUNDUP FOR COLORADO
NATIONAL WEATHER SERVICE DENVER/BOULDER CO
200 AM MDT MON MAY 02 2016

NOTE: "FAIR" INDICATES FEW OR NO CLOUDS BELOW 12000 FEET WITH NO
SIGNIFICANT WEATHER AND/OR OBSTRUCTIONS TO VISIBILITY.

COZ001>005-013-030-031-020900-
...NORTHWEST COLORADO...

CITY           SKY/WX    TMP DP  RH WIND       PRES   REMARKS
CRAIG          CLOUDY    36  26  67 W5        30.20R
HAYDEN         CLOUDY    36  25  64 S3        30.20R
MEEKER         CLOUDY    36  30  79 CALM      30.19R
MOUNT WERNER   NOT AVBL
STEAMBOAT SPGS MOCLDY    33  24  70 CALM      30.20S
WALDEN         FAIR      19  16  86 E3        30.26R
$$

COZ006>008-011-020900-
...WEST CENTRAL VALLEYS...

CITY           SKY/WX    TMP DP  RH WIND       PRES   REMARKS
GRAND JUNCTION CLOUDY    47  39  74 SE10      30.17R
MONTROSE       CLOUDY    42  38  85 CALM      30.22R
EAGLE          CLOUDY    37  28  70 CALM      30.22S
RIFLE          CLOUDY    45  40  82 S3        30.18S
DELTA          NOT AVBL
NUCLA          NOT AVBL
$$

COZ017>023-064>068-020900-
...SOUTHWEST COLORADO...

CITY           SKY/WX    TMP DP  RH WIND       PRES   REMARKS
DURANGO        CLOUDY    37  35  92 E3        30.24S
CORTEZ         CLOUDY    43  34  70 S3        30.21S
PAGOSA SPRINGS FLURRIES  34  34 100 CALM      30.25S
TELLURIDE      FOG       32  32 100 S5        30.25S VSB 1/2 WCI  27
WOLF CREEK PAS SNOW      21  21 100 SW13      30.29F VSB 1/4 WCI   9
$$

COZ009-010-012-014-032>034-037-058>063-020900-
...CENTRAL COLORADO...

CITY           SKY/WX    TMP DP  RH WIND       PRES   REMARKS
ASPEN          CLOUDY    36  26  67 CALM      30.20R
BUENA VISTA    FLURRIES  29  27  92 CALM      30.26F
COPPER MTN     NOT AVBL
BERTHOUD PASS  FAIR      14   3  62 N6        30.25S WCI   5
COTTONWOOD PAS LGT SNOW  28  25  86 CALM      30.26S
GUNNISON       MOCLDY    34  28  80 CALM      30.26S
KREMMLING      FAIR      27  19  74 CALM      30.25S
LEADVILLE      CLOUDY    22  19  89 E3        30.24F
MONARCH PASS   FOG       19  18  93 MISG      30.36S VSB 1/4
SALIDA         CLOUDY    32  30  94 CALM      30.35S
SUNLIGHT       CLOUDY    30  28  93 CALM      30.29S
WILKERSON PASS FOG      N/A N/A N/A CALM      30.26F VSB 3/4
$$

COZ069>075-020900-
...SAN LUIS VALLEY/SANGRE DE CRISTO MOUNTAINS...

CITY           SKY/WX    TMP DP  RH WIND       PRES   REMARKS
ALAMOSA        CLOUDY    34  28  79 E3        30.24S
LA VETA PASS   CLOUDY    23  21  93 MISG      30.25S
SAGUACHE       CLOUDY    32  28  86 E6        30.26S WCI  26
$$

COZ035-036-038>040-020900-
...NORTHERN COLORADO FRONT RANGE...

CITY           SKY/WX    TMP DP  RH WIND       PRES   REMARKS
DENVER INTL AP FAIR      32  26  78 SW6       30.27F WCI  26
DMNS CITY PARK   N/A     33  29  85 SE7       30.27F WCI  27
AURORA         FAIR      29  28  96 S8        30.27F WCI  21
FRONT RANGE AP NOT AVBL
ERIE MUNI ARPT FAIR      31  29  94 CALM      30.28S
BOULDER MUN AP FAIR      34  32  93 CALM      30.27F
CENTENNIAL     FAIR      28  25  88 S5        30.27F WCI  23
BROOMFIELD     FAIR      36  30  80 CALM      30.27F
FORT COLLINS   FAIR      30  25  80 N8        30.28F WCI  23
LONGMONT       FAIR      35  29  80 CALM      30.29F HAZE
$$

COZ041-046-047-076>085-087-088-020900-
...PIKES PEAK/PALMER DIVIDE AND SOUTHERN FOOTHILLS...

CITY           SKY/WX    TMP DP  RH WIND       PRES   REMARKS
COLO. SPRINGS  MOCLDY    31  24  75 N5        30.28F WCI  26
A. F. ACADEMY  CLOUDY    25  21  86 NE7       30.27S WCI  17
SCHRIEVER AFB  NOT AVBL
ELLICOTT       NOT AVBL
FALCON         FAIR      25  21  85 W3        30.28F
FORT CARSON    CLOUDY    35  30  81 CALM      30.27F
LIMON          FAIR      25  23  92 NW5       30.27F WCI  19
MONUMENT HILL  FAIR      19  18  93 SW6       30.28F WCI  11
TRINIDAD       CLOUDY    34  31  88 W5        30.28F WCI  30
$$

COZ042>045-048>051-090-091-020900-
...NORTHEAST COLORADO...

CITY           SKY/WX    TMP DP  RH WIND       PRES   REMARKS
GREELEY ARPT   FAIR      28  25  86 N7        30.29S WCI  21
AKRON          FAIR      32  26  78 W14       30.26F WCI  22
BURLINGTON     FAIR      29  25  85 W8        30.26S WCI  21
WRAY           NOT AVBL
STERLING       FAIR      30  28  93 SW7       30.26S WCI  23
HOLYOKE        NOT AVBL
FORT MORGAN    FAIR      29  27  92 W6        30.28F WCI  23
$$

COZ086-089-092>099-020900-
...SOUTHEAST COLORADO...

CITY           SKY/WX    TMP DP  RH WIND       PRES   REMARKS
PUEBLO         CLOUDY    39  33  79 W3        30.29F
LA JUNTA       FAIR      34  30  85 NW8       30.28F WCI  27
LAMAR          FAIR      32  27  81 CALM      30.26F
SPRINGFIELD      N/A     31  29  92 NW8       30.25F WCI  23
$$



USA.gov is the U.S. government's official web portal to all federal, state and local government web resources and services.